[Iaude] MPEC L31: 2022 LM [a=2.51,e=0.56,i=53.6,H=21.6]

mpec at marsden.cfa.harvard.edu mpec at marsden.cfa.harvard.edu
Sun Jun 5 09:05:21 EDT 2022


M.P.E.C. 2022-L31                                  Issued 2022 June 5, 13:04 UT

     The Minor Planet Electronic Circulars contain information on unusual
         minor planets and routine data on comets.  They are published
    on behalf of Division F of the International Astronomical Union by the
          Minor Planet Center, Smithsonian Astrophysical Observatory,
                          Cambridge, MA 02138, U.S.A.

             Prepared using the Tamkin Foundation Computer Network

                              MPC at CFA.HARVARD.EDU
            URL https://www.minorplanetcenter.net/    ISSN 1523-6714

                                    2022 LM                                     


Observations:
     K22L00M* C2022 06 03.42941518 24 25.686+40 52 27.95         20.11GVEL031G96
     K22L00M  C2022 06 03.43467418 24 23.461+40 51 47.02         20.03GVEL031G96
     K22L00M  C2022 06 03.43991718 24 21.197+40 51 06.23         20.65GVEL031G96
     K22L00M  C2022 06 03.44521518 24 18.954+40 50 25.66         20.42GVEL031G96
     K22L00M  C2022 06 03.46199318 24 11.819+40 48 15.05         20.43GVEL031G96
     K22L00M  C2022 06 03.46225918 24 11.714+40 48 12.46         20.49GVEL031G96
     K22L00M  C2022 06 03.46252718 24 11.610+40 48 10.91         20.44GVEL031G96
     K22L00M  C2022 06 03.46279118 24 11.466+40 48 08.78         20.30GVEL031G96
     K22L00M KC2022 06 04.23150918 18 51.24 +39 02 44.2          19.9 VuEL031H21
     K22L00M KC2022 06 04.23430518 18 49.97 +39 02 19.7          19.9 VuEL031H21
     K22L00M KC2022 06 04.23710118 18 48.68 +39 01 55.1          19.8 VuEL031H21
     K22L00M KC2022 06 04.24064118 18 47.09 +39 01 24.5          19.9 VuEL031H21
     K22L00M mC2022 06 04.24232918 18 47.524+39 01 09.98         19.99GVEL031I52
     K22L00M mC2022 06 04.24406618 18 46.735+39 00 54.54         19.94GVEL031I52
     K22L00M mC2022 06 04.24580218 18 45.990+39 00 39.92         20.24GVEL031I52
     K22L00M mC2022 06 04.24602418 18 45.886+39 00 37.84         20.33GVEL031I52
     K22L00M 1C2022 06 04.87676 18 14 03.97 +37 23 05.5          20.4 VXEL031033
     K22L00M 1C2022 06 04.87722 18 14 03.77 +37 23 01.1          20.2 VXEL031033
     K22L00M 1C2022 06 04.87768 18 14 03.54 +37 22 56.8          20.0 VXEL031033
     K22L00M 1C2022 06 04.87833 18 14 03.27 +37 22 50.4          20.4 VXEL031033
     K22L00M KC2022 06 04.89116918 13 57.821+37 20 50.64         18.7 GVEL031B49
     K22L00M KC2022 06 04.89662018 13 55.457+37 19 56.46         19.2 GVEL031B49
     K22L00M KC2022 06 04.91275618 13 47.19 +37 17 22.1          20.2 VdEL031L01
     K22L00M KC2022 06 04.91441018 13 46.37 +37 17 05.5          20.4 VdEL031L01
     K22L00M KC2022 06 04.91606418 13 45.60 +37 16 49.5          20.1 VdEL031L01
     K22L00M KC2022 06 04.91774418 13 44.80 +37 16 33.2          20.2 VdEL031L01
     K22L00M KC2022 06 04.91971218 13 43.93 +37 16 13.4          20.0 VdEL031L01
     K22L00M KC2022 06 04.94732118 13 30.69 +37 11 43.4          20.5 GXEL031595
     K22L00M KC2022 06 04.97150318 13 19.20 +37 07 44.5                XEL031595
     K22L00M KC2022 06 04.97611718 13 17.575+37 07 01.38         19.2 GVEL031B37
     K22L00M KC2022 06 04.97905718 13 16.147+37 06 32.54         19.3 GVEL031B37
     K22L00M KC2022 06 04.98199118 13 14.736+37 06 03.49         20.8 GVEL031B37
     K22L00M KC2022 06 04.98718818 13 12.264+37 05 12.62         20.2 GVEL031B37
     K22L00M KC2022 06 04.98932918 13 11.227+37 04 51.17         20.9 GVEL031B37
     K22L00M KC2022 06 04.99158618 13 10.121+37 04 28.45         20.3 GVEL031B37
     K22L00M KC2022 06 05.06576918 12 34.10 +36 52 06.0                XEL031C95
     K22L00M KC2022 06 05.09818718 12 18.41 +36 46 37.0          19.0 GXEL031C95
     K22L00M  C2022 06 05.32459918 10 33.955+36 07 47.73         19.8 GVEL031654
     K22L00M  C2022 06 05.32851718 10 32.019+36 07 06.60         19.8 GVEL031654
     K22L00M mC2022 06 05.36566318 10 13.109+36 00 37.26         19.80GVEL031I52
     K22L00M mC2022 06 05.36590918 10 12.986+36 00 34.56         19.66GVEL031I52
     K22L00M mC2022 06 05.36615518 10 12.860+36 00 31.97         19.78GVEL031I52
     K22L00M mC2022 06 05.36640018 10 12.720+36 00 29.34         19.72GVEL031I52

Observer details:
033 Karl Schwarzschild Observatory, Tautenburg.  Observers S. Melnikov, C.
    Hoegner, U. Laux, F. Ludwig, B. Stecklum.  Measurer B. Stecklum.  1.34-m
    f/3 Schmidt + CCD.
595 Farra d'Isonzo.  Observer E. Pettarin.  0.61-m f/4.5 reflector + CCD.
654 Table Mountain Observatory, Wrightwood-PHMC.  Observers N. Evans, P. Choi,
    N. Saini, C. Zhai, R. Trahan, M. Shao.  1.0-m Reflector + CCD.
B37 Obs. de L Ametlla del Valles, Barcelona.  Observer A. Garrigos.  0.51-m
    f/4.0 0.51-m f/4.0 reflector + CCD.
B49 Paus Observatory, Sabadell.  Observer J. Camarasa.  Measurer G.
    Duszanowicz.  0.30-m f/4.0 0.30-m f/4 reflector + CCD.
C95 SATINO Remote Observatory, Haute Provence.  Observer J. Jahn.  0.60-m
    f/3.2 Newtonian reflector + CCD.
G96 Mt. Lemmon Survey.  Observer R. A. Kowalski.  Measurers E. J. Christensen,
    D. Fay, J. B. Fazekas, D. C. Fuls, A. R. Gibbs, A. D. Grauer, H. Groeller,
    J. K. Hogan, R. A. Kowalski, S. M. Larson, G. J. Leonard, D. Rankin, R. L.
    Seaman, A. Serrano, F. C. Shelly, K. W. Wierzchos.  1.5-m reflector + 10K
    CCD.
H21 Astronomical Research Observatory, Westfield.  Observer R. Holmes.
    Measurers T. Linder, R. Holmes, L. Horn.  0.76-m f/3.0 astrograph + CCD.
I52 Steward Observatory, Mt. Lemmon Station.  Observer G. J. Leonard.
    Measurers E. J. Christensen, D. Fay, J. B. Fazekas, D. C. Fuls, A. R.
    Gibbs, A. D. Grauer, H. Groeller, J. K. Hogan, R. A. Kowalski, S. M.
    Larson, G. J. Leonard, D. Rankin, R. L. Seaman, A. Serrano, F. C. Shelly,
    K. W. Wierzchos.  1.0-m prime focus + CCD.
L01 Visnjan Observatory, Tican.  Observers K. Korlevic, G. Kervina.  Measurer
    K. Korlevic.  1.0-m f/2.9 reflector + CCD.

Orbital elements:
2022 LM                                                  Earth MOID = 0.1063 AU
Epoch 2022 Jan. 21.0 TT = JDT 2459600.5                 Veres                   
M 327.75419              (2000.0)            P               Q                  
n   0.24786724     Peri.  164.71960     -0.29310313     +0.52897168             
a   2.5099012      Node    81.75916     -0.93969432     -0.00582262             
e   0.5588523      Incl.   53.58380     -0.17625305     -0.84861950             
P   3.98           H   21.66          G   0.15           U   9                  
Residuals in seconds of arc
220603 G96  0.0   0.3+    220604 I52  0.1+  0.0     220604 B37  0.0   0.0
220603 G96  0.2+  0.0     220604 033  0.0   0.4-    220604 B37  0.0   0.1-
220603 G96  0.2-  0.2-    220604 033  0.2+  0.3-    220604 B37  0.3+  0.4+
220603 G96  0.1-  0.3+    220604 033  0.0   0.2-    220604 B37  0.2+  0.1+
220603 G96  0.1-  0.2+    220604 033  0.4+  0.3-    220604 B37  0.1-  0.3-
220603 G96  0.0   0.3-    220604 B49  0.7-  0.4+    220605 C95  0.2-  0.4+
220603 G96  0.1+  0.2+    220604 B49 (1.6+  1.1-)   220605 C95  0.1-  0.1-
220603 G96  0.2-  0.2+    220604 L01  0.2+  0.2+    220605 654  0.0   0.0
220604 H21  0.2+  0.2+    220604 L01  0.2-  0.3-    220605 654  0.1+  0.1-
220604 H21  0.1+  0.0     220604 L01  0.0   0.2-    220605 I52  0.1+  0.1+
220604 H21  0.2-  0.3-    220604 L01  0.0   0.1-    220605 I52  0.1+  0.0
220604 H21  0.0   0.0     220604 L01  0.7+  0.7-    220605 I52  0.0   0.0
220604 I52  0.1-  0.1+    220604 595  0.3-  0.3+    220605 I52  0.2-  0.0
220604 I52  0.2-  0.3-    220604 595  0.6+  0.6-
220604 I52  0.2+  0.1+    220604 B37  0.2+  0.1-

Ephemeris:
2022 LM                  a,e,i = 2.51, 0.56, 54                  q = 1.1072
Date    TT    R. A. (2000) Decl.     Delta      r    Elong.  Phase     V
2022 05 06    19 38 40.8 +56 56 44   0.6293  1.1485    85.7    61.1    23.1
...
2022 05 21    19 19 30.2 +53 44 33   0.4074  1.1141    93.6    65.0    22.2
...
2022 05 29    18 54 01.6 +48 45 42   0.2834  1.1075   102.0    63.5    21.4
...
2022 06 04    18 20 29.8 +39 36 01   0.1938  1.1082   114.3    56.6    20.4
2022 06 05    18 13 05.5 +37 03 18   0.1799  1.1088   117.4    54.3    20.1
2022 06 06    18 05 02.7 +34 02 21   0.1665  1.1096   121.0    51.6    19.9
...
2022 06 12    17 00 38.2 +00 38 10   0.1101  1.1167   155.8    21.9    18.2
...
2022 06 20    14 54 28.3 -51 47 15   0.1564  1.1334   135.8    38.7    19.4
...
2022 07 05    12 05 42.2 -67 44 38   0.3846  1.1849   106.5    55.3    22.0

M. P. C. Staff               (C) Copyright 2022 MPC           M.P.E.C. 2022-L31




More information about the Iaude mailing list